Skip to main content.
Our real time weather data display below is updated continuously via our 24/7 live data feed.
 TIME   TEMPERATURE   WINDSPEED   DIRECTION   HUMIDITY   BAROMETER   RAINFALL 
1:50 20.0°C (68.0°F) 13.0 kmh (8.1 mph) S 68% 1013.9hPa (29.94 inHg) 0.0mm (0.00 in.)
0:50 20.0°C (68.0 °F) 9.3 kmh (5.8 mph) S 68% 1014.9hPa (29.97 inHg) 0.0mm (0.00 in.)
23:50 19.0°C (66.2 °F) 9.3 kmh (5.8 mph) S 77% 1014.9hPa (29.97 inHg) 0.0mm (0.00 in.)
22:50 19.0°C (66.2 °F) 11.1 kmh (6.9 mph) S 77% 1014.9hPa (29.97 inHg) 0.0mm (0.00 in.)
21:50 19.0°C (66.2 °F) 7.4 kmh (4.6 mph) S 72% 1015.9hPa (30.00 inHg) 0.0mm (0.00 in.)
20:50 19.0°C (66.2 °F) 9.3 kmh (5.8 mph) S 77% 1014.9hPa (29.97 inHg) 0.0mm (0.00 in.)
19:50 19.0°C (66.2 °F) 7.4 kmh (4.6 mph) S 72% 1014.9hPa (29.97 inHg) 0.0mm (0.00 in.)
18:50 19.0°C (66.2 °F) 5.6 kmh (3.5 mph) SSW 72% 1015.9hPa (30.00 inHg) 0.0mm (0.00 in.)
17:50 20.0°C (68.0 °F) 7.4 kmh (4.6 mph) SSW 68% 1014.9hPa (29.97 inHg) 0.0mm (0.00 in.)
16:50 21.0°C (69.8 °F) 9.3 kmh (5.8 mph) SSW 64% 1014.9hPa (29.97 inHg) 0.0mm (0.00 in.)
15:50 22.0°C (71.6 °F) 11.1 kmh (6.9 mph) WSW 60% 1015.9hPa (30.00 inHg) 0.0mm (0.00 in.)
14:50 23.0°C (73.4 °F) 14.8 kmh (9.2 mph) SW 56% 1015.9hPa (30.00 inHg) 0.0mm (0.00 in.)
13:50 23.0°C (73.4 °F) 5.6 kmh (3.5 mph) W 60% 1016.9hPa (30.03 inHg) 0.0mm (0.00 in.)
12:50 23.0°C (73.4 °F) 11.1 kmh (6.9 mph) ENE 56% 1016.9hPa (30.03 inHg) 0.0mm (0.00 in.)
11:50 23.0°C (73.4 °F) 5.6 kmh (3.5 mph) ENE 60% 1017.9hPa (30.06 inHg) 0.0mm (0.00 in.)
10:50 22.0°C (71.6 °F) 5.6 kmh (3.5 mph) N 60% 1017.9hPa (30.06 inHg) 0.0mm (0.00 in.)
9:50 21.0°C (69.8 °F) 3.7 kmh (2.3 mph) N 64% 1017.9hPa (30.06 inHg) 0.0mm (0.00 in.)
8:50 20.0°C (68.0 °F) 3.7 kmh (2.3 mph) NW 72% 1017.9hPa (30.06 inHg) 0.0mm (0.00 in.)
7:50 17.0°C (62.6 °F) 7.4 kmh (4.6 mph) NW 82% 1017.9hPa (30.06 inHg) 0.0mm (0.00 in.)
6:50 16.0°C (60.8 °F) 7.4 kmh (4.6 mph) W 82% 1016.9hPa (30.03 inHg) 0.0mm (0.00 in.)
5:50 17.0°C (62.6 °F) 9.3 kmh (5.8 mph) WNW 77% 1016.9hPa (30.03 inHg) 0.0mm (0.00 in.)
4:50 17.0°C (62.6 °F) 14.8 kmh (9.2 mph) WNW 77% 1016.9hPa (30.03 inHg) 0.0mm (0.00 in.)
3:50 16.0°C (60.8 °F) 13.0 kmh (8.1 mph) WNW 82% 1016.9hPa (30.03 inHg) 0.0mm (0.00 in.)
2:50 17.0°C (62.6 °F) 13.0 kmh (8.1 mph) NW 77% 1017.9hPa (30.06 inHg) 0.0mm (0.00 in.)